Regional Weather Roundup
Issued by NWS

Home | Current Version | Previous Version | Graphics & Text | Print | Product List | Glossary On
Versions: 1 2 3 4 5 6 7 8 9 10 11 12 13 14 15 16 17 18 19 20 21 22 23 24 25 26 27 28 29 30 31 32 33 34 35 36 37 38 39 40 41 42 43 44 45 46 47 48 49 50
000
ASUS45 KCYS 180710
RWRWY

WYOMING REGIONAL WEATHER ROUNDUP
NATIONAL WEATHER SERVICE CHEYENNE WY
1200 AM MST THU DEC 18 2014

NOTE:  "FAIR" INDICATES FEW OR NO CLOUDS BELOW 12,000 FEET
WITH NO SIGNIFICANT WEATHER AND/OR OBSTRUCTIONS TO VISIBILITY.

WYZ001-180800-
YELLOWSTONE NATIONAL PARK

CITY           SKY/WX    TMP DP  RH WIND       PRES   REMARKS
LK YELLOWSTONE   N/A     17  14  88 CALM      30.01R
W YELLOWSTONE  NOT AVBL

$$
WYZ002>013-054>058-071-098>099-180800-
NORTHERN WYOMING

CITY           SKY/WX    TMP DP  RH WIND       PRES   REMARKS
JACKSON        CLOUDY    12  12 100 N3        30.02S
CODY           FAIR      27  12  54 CALM      29.93S
GREYBULL       FAIR      12   9  87 CALM      30.01S
WORLAND        FAIR       5   2  87 SE7       29.99S WCI  -7
SHERIDAN       FAIR      15  11  83 CALM      29.94S
BUFFALO        FAIR      25  18  74 W5        29.94S WCI  19
GILLETTE       FAIR      26  20  77 SW7       29.94S WCI  18
HULETT           N/A    N/A N/A N/A MISG        N/A
NEWCASTLE      FOG       14  14 100 CALM      29.99S VSB 1/2

$$
WYZ014>020-022>026-101>103-180800-
CENTRAL WYOMING

CITY           SKY/WX    TMP DP  RH WIND       PRES   REMARKS
BIG PINEY      FAIR      10   6  84 N3        30.03S
PINEDALE       CLOUDY    18  16  93 W3        30.03F
DUBOIS         CLOUDY    23  14  68 NW12      29.96S WCI  12
LANDER         FAIR       0  -3  87 SE3       29.97S FOG
RIVERTON       HAZE      13   8  81 CALM      29.99S VSB 1/4
CASPER         FAIR      22  16  78 SW6       29.96S WCI  14
DOUGLAS        FAIR      13  10  88 CALM      29.98S

$$
WYZ021-027>030-104>119-180800-
SOUTHERN WYOMING

CITY           SKY/WX    TMP DP  RH WIND       PRES   REMARKS
EVANSTON       CLOUDY    23  18  81 W7        30.04S WCI  15
KEMMERER       FAIR      19  14  79 N5        30.03S WCI  13
FORT BRIDGER   CLOUDY    30  23  75 W7        30.06S WCI  23
ROCK SPRINGS   FAIR      18  14  84 SW7       30.02S WCI   9
DIXON          FAIR     N/A N/A N/A CALM      30.09R
RAWLINS        FAIR      20  15  81 SW10      29.99S WCI   9
SARATOGA       FAIR      14  10  85 CALM      30.01S
LARAMIE        FAIR       8   6  92 S7        29.95F WCI  -3
CHEYENNE       FAIR      24  15  68 W12       29.95F WCI  13
TORRINGTON     FOG       12  10  92 NE3       30.00S VSB 1/4
PINE BLUFFS    FAIR      23  21  93 W3        29.98S

$$



USA.gov is the U.S. government's official web portal to all federal, state and local government web resources and services.